Location: St. Louis
(38.6270°N, 90.1994°W)
Time: 05:24:14
(UTC-06:00)

Vanguard 2 Rocket - Pass Details

Date: 03 December 2021
Orbit: 554 x 3325 km, 32.9° (Epoch: 21 January)

Event Time Altitude Azimuth Distance (km) Brightness Sun altitude
Rises 18:55:24 0° 251° (WSW) 3,411 11.1 -25.9°
Reaches altitude 10° 18:57:28 10° 247° (WSW) 2,691 10.3 -26.3°
Maximum altitude 19:03:53 58° 169° (S) 1,556 7.9 -27.6°
Enters shadow 19:06:37 44° 119° (ESE) 2,030 8.2 -28.1°
